User: anonymous   Login
Location: Enid
(36.3960°N, 97.8780°W)
Time: 13:28:35
(UTC-06:00)
Language:

Hubble Space Telescope - Orbit

View from above orbital plane
View from above orbital plane
View from above satellite
View from above satellite

Ground track
Ground track

The orbit data is extracted from the following two-line orbital elements,

1 20580U 90037B   17055.23964824  .00000731  00000-0  34286-4 0  9998
2 20580  28.4708  33.8089 0002855  43.3173  83.7895 15.08679798273213
Epoch (UTC): 24 February 2017 05:45:05
Eccentricity: 0.0002855
inclination: 28.4708°
perigee height: 538 km
apogee height: 542 km
right ascension of ascending node: 33.8089°
argument of perigee: 43.3173°
revolutions per day: 15.08679798
mean anomaly at epoch: 83.7895°
orbit number at epoch: 27321

The dashed part of the orbit path shows where the satellite is in the earth's shadow,  

DLR